Regional Weather Roundup
Issued by NWS

Home | Current Version | Previous Version | Graphics & Text | Print | Product List | Glossary On
Versions: 1 2 3 4 5 6 7 8 9 10 11 12 13 14 15 16 17 18 19 20 21 22 23 24 25 26 27 28 29 30 31 32 33 34 35 36 37 38 39 40 41 42 43 44 45 46 47 48 49 50
000
ASUS43 KLMK 251502
RWRKY
KENTUCKY REGIONAL WEATHER ROUNDUP
NATIONAL WEATHER SERVICE LOUISVILLE KY
1100 AM EDT TUE APR 25 2017

NOTE "FAIR" INDICATES FEW OR NO CLOUDS BELOW 12,000 FEET
WITH NO SIGNIFICANT WEATHER AND/OR OBSTRUCTIONS TO VISIBILITY.

KYZ001>023-026-027-061>063-070>075-251600-
WESTERN AND SOUTH CENTRAL KENTUCKY

CITY           SKY/WX    TMP DP  RH WIND       PRES   REMARKS
PADUCAH        SUNNY     69  56  62 S7        29.74F
HENDERSON      SUNNY     69  58  67 S3        29.77S
OWENSBORO      SUNNY     67  58  72 SW5       29.77F
HOPKINSVILLE   SUNNY     66  57  74 SW3       29.78F
BOWLING GREEN  SUNNY     67  58  72 CALM      29.79S
GLASGOW        NOT AVBL
$$

KYZ024-025-028>034-038-045-046-053-251600-
NORTH CENTRAL KENTUCKY

CITY           SKY/WX    TMP DP  RH WIND       PRES   REMARKS
LOUISVILLE/SDF MOSUNNY   66  55  67 CALM      29.79S
LOUISVILLE/LOU NOT AVBL
FORT KNOX      CLOUDY    64  56  74 SE3       29.78S
$$

KYZ035>037-039>044-047>052-055>060-089>105-251600-
NORTHEAST KENTUCKY

CITY           SKY/WX    TMP DP  RH WIND       PRES   REMARKS
LEXINGTON      PTSUNNY   62  53  72 SE6       29.81F
COVINGTON      MOSUNNY   64  54  69 S7        29.81F
FRANKFORT      MOSUNNY   65  53  65 SE7       29.80S
$$

KYZ054-064>069-076>088-106>120-251600-
SOUTHEAST KENTUCKY

CITY           SKY/WX    TMP DP  RH WIND       PRES   REMARKS
JACKSON        CLOUDY    62  53  72 MISG      29.80F
LONDON         CLOUDY    59  52  77 CALM      29.82R
SOMERSET       CLOUDY    63  52  67 E3        29.82F
MIDDLESBORO    CLOUDY    60  55  82 CALM      29.82S
MONTICELLO     CLOUDY    63  57  81 W6        29.83R
$$





USA.gov is the U.S. government's official web portal to all federal, state and local government web resources and services.